User: anonymous   Login
Location: Drummondville
(45.8830°N, 72.4830°W)
Time: 01:06:19
(UTC-04:00)
Language:

Envisat - Orbit

View from above orbital plane
View from above orbital plane
View from above satellite
View from above satellite

Ground track
Ground track

The orbit data is extracted from the following two-line orbital elements,

1 27386U 02009A   18262.67256098 -.00000006  00000-0  11636-4 0  9997
2 27386  98.1778 292.2451 0001246  88.4187  20.6546 14.37929795867103
Epoch (UTC): 19 September 2018 16:08:29
Eccentricity: 0.0001246
inclination: 98.1778°
perigee height: 764 km
apogee height: 766 km
right ascension of ascending node: 292.2451°
argument of perigee: 88.4187°
revolutions per day: 14.37929795
mean anomaly at epoch: 20.6546°
orbit number at epoch: 86710

The dashed part of the orbit path shows where the satellite is in the earth's shadow,  

DLR